Regional Weather Roundup
Issued by NWS Charleston, WV

Home | Current Version | Previous Version | Text Only | Print | Product List | Glossary On
Versions: 1 2 3 4 5 6 7 8 9 10 11 12 13 14 15 16 17 18 19 20 21 22 23 24 25 26 27 28 29 30 31 32 33 34 35 36 37 38 39 40 41 42 43 44 45 46 47 48 49 50
000
ASUS41 KRLX 162010
RWRRLX
West Virginia Regional Weather Roundup
National Weather Service Charleston WV
400 PM EDT WED AUG 16 2017

Note: "fair" indicates few or no clouds below 12,000 feet with no
significant weather and/or obstructions to visibility.

WVZ003-162100-
Northern Panhandle of West Virginia

CITY           SKY/WX    TMP DP  RH WIND       PRES   REMARKS
WHEELING       SUNNY     84  62  47 CALM      30.05F
$$

WVZ009-162100-
Northwest West Virginia

CITY           SKY/WX    TMP DP  RH WIND       PRES   REMARKS
PARKERSBURG    MOSUNNY   85  67  54 CALM      30.04F
$$

WVZ006-162100-
Western West Virginia

CITY           SKY/WX    TMP DP  RH WIND       PRES   REMARKS
HUNTINGTON     MOSUNNY   87  67  51 CALM      30.01F
$$

WVZ015-162100-
West Central West Virginia

CITY           SKY/WX    TMP DP  RH WIND       PRES   REMARKS
CHARLESTON     MOSUNNY   88  66  48 S5        30.02F
$$

WVZ022-031-162100-
North Central West Virginia

CITY           SKY/WX    TMP DP  RH WIND       PRES   REMARKS
CLARKSBURG     CLOUDY    82  66  58 CALM      30.04F
MORGANTOWN     PTSUNNY   85  66  53 NW6       30.05F
$$

WVZ025-035-042-045-162100-
Southern West Virginia

CITY           SKY/WX    TMP DP  RH WIND       PRES   REMARKS
BECKLEY        PTSUNNY   81  64  56 N9        30.12F
LOGAN            N/A     84  68  58 CALM      30.06F
BLUEFIELD      SUNNY     81  60  48 VRB5      30.14F
LEWISBURG      SUNNY     83  60  45 W7        30.10F
$$

WVZ047-162100-
Northern Mountains of West Virginia

CITY           SKY/WX    TMP DP  RH WIND       PRES   REMARKS
ELKINS         PTSUNNY   84  63  49 N8        30.09F
$$

WVZ052-162100-
Eastern Panhandle of West Virginia

CITY           SKY/WX    TMP DP  RH WIND       PRES   REMARKS
MARTINSBURG    NOT AVBL
PETERSBURG     MOSUNNY   90  68  48 W5        30.02S
$$



USA.gov is the U.S. government's official web portal to all federal, state and local government web resources and services.